This is the latest recevied weather packets stored in our database for station/object ES2ADF-5. If no packets are shown the sender has not sent any weather packets the latest 10 day(s).
| Time | Temp. | Humidity | Pressure | Rain* | Wind** | Luminosity | Snow |
|---|---|---|---|---|---|---|---|
| 1777704368 | 23.33° C | 34% | 1012.9 hPa | 0 mm | - | - | - |
| 1777704068 | 23.33° C | 35% | 1012.8 hPa | 0 mm | - | - | - |
| 1777703768 | 23.89° C | 35% | 1012.7 hPa | 0 mm | - | - | - |
| 1777703467 | 23.89° C | 34% | 1012.6 hPa | 0 mm | - | - | - |
| 1777703167 | 23.89° C | 34% | 1012.6 hPa | 0 mm | - | - | - |
| 1777702867 | 23.89° C | 34% | 1012.7 hPa | 0 mm | - | - | - |
| 1777702566 | 24.44° C | 34% | 1012.6 hPa | 0 mm | - | - | - |
| 1777702266 | 24.44° C | 36% | 1012.6 hPa | 0 mm | - | - | - |
| 1777701966 | 23.89° C | 36% | 1012.6 hPa | 0 mm | - | - | - |
| 1777701665 | 23.89° C | 36% | 1012.6 hPa | 0 mm | - | - | - |
| 1777701365 | 23.89° C | 36% | 1012.6 hPa | 0 mm | - | - | - |
| 1777701065 | 23.89° C | 36% | 1012.6 hPa | 0 mm | - | - | - |
| 1777700464 | 23.89° C | 37% | 1012.9 hPa | 0 mm | - | - | - |
| 1777700164 | 23.89° C | 38% | 1012.9 hPa | 0 mm | - | - | - |
| 1777699864 | 23.89° C | 38% | 1012.9 hPa | 0 mm | - | - | - |
| 1777699564 | 23.89° C | 38% | 1012.9 hPa | 0 mm | - | - | - |
| 1777699263 | 23.89° C | 39% | 1012.6 hPa | 0 mm | - | - | - |
| 1777698963 | 23.33° C | 39% | 1012.6 hPa | 0 mm | - | - | - |
| 1777698663 | 23.33° C | 41% | 1012.6 hPa | 0 mm | - | - | - |
| 1777698362 | 23.33° C | 41% | 1012.8 hPa | 0 mm | - | - | - |
| 1777698062 | 22.78° C | 43% | 1012.7 hPa | 0 mm | - | - | - |
| 1777697762 | 22.22° C | 44% | 1012.7 hPa | 0 mm | - | - | - |
| 1777697461 | 21.67° C | 46% | 1012.7 hPa | 0 mm | - | - | - |
| 1777697161 | 20.56° C | 50% | 1012.6 hPa | 0 mm | - | - | - |
| 1777696861 | 19.44° C | 54% | 1012.6 hPa | 0 mm | - | - | - |
* Rain latest hour (hover to see other rain measurements)
** Current wind speed in m/s (hover to see current wind gust speed)